User: anonymous   Login
Location: Unspecified
(0.0000°N, 0.0000°E)
Time: 05:59:15
(UTC+02:00)
Language:

Cosmos 2219 Rocket - Orbit

View from above orbital plane
View from above orbital plane
View from above satellite
View from above satellite

Ground track
Ground track

The orbit data is extracted from the following two-line orbital elements,

1 22220U 92076B   16178.19724824 -.00000088  00000-0 -20137-4 0  9997
2 22220  71.0008  88.5792 0010700  96.6509  65.1267 14.16397085220362
Epoch (UTC): 26 June 2016 04:44:02
Eccentricity: 0.0010700
inclination: 71.0008°
perigee height: 830 km
apogee height: 845 km
right ascension of ascending node: 88.5792°
argument of perigee: 96.6509°
revolutions per day: 14.16397085
mean anomaly at epoch: 65.1267°
orbit number at epoch: 22036

The dashed part of the orbit path shows where the satellite is in the earth's shadow,  

DLR